Regional Weather Roundup
Issued by NWS

Home | Current Version | Previous Version | Text Only | Print | Product List | Glossary Off
Versions: 1 2 3 4 5 6 7 8 9 10 11 12 13 14 15 16 17 18 19 20 21 22 23 24 25 26 27 28 29 30 31 32 33 34 35 36 37 38 39 40 41 42 43 44 45 46 47 48 49 50

616
ASUS44 KMEG 161810
RWRTN
TENNESSEE HOURLY STATE WEATHER ROUNDUP
NATIONAL WEATHER SERVICE MEMPHIS TN
100 PM CDT WED AUG 16 2017

TNZ002-004-019-021-049-052-054-088>092-161900-
WEST TENNESSEE

CITY           SKY/WX    TMP DP  RH WIND       PRES   REMARKS
MEMPHIS INTL   CLOUDY    85  78  80 S10       30.01F HX  96
NWS MEMPHIS      N/A     84 N/A N/A MISG        N/A
JACKSON        PTSUNNY   86  78  77 S8        30.02F HX  98
DYERSBURG      CLOUDY    85  78  80 VRB5      30.01F HX  96
COVINGTON      CLOUDY    84  77  79 S8G16     30.01F HX  94
UNION CITY     PTSUNNY   84  77  79 SW8       29.99S HX  94
PARIS          PTSUNNY   86  77  74 SW8       30.00F HX  97
LEXINGTON      PTSUNNY   86  75  70 SW7       30.03F HX  95
SELMER         PTSUNNY   84  75  74 SW8       30.03F HX  92
SAVANNAH       PTSUNNY   86  77  74 VRB7G13   30.02F HX  97
$$

TNZ008-025-027-028-033-062-065-066-161900-
NORTH MIDDLE TENNESSEE

CITY           SKY/WX    TMP DP  RH WIND       PRES   REMARKS
NASHVILLE      PTSUNNY   87  74  64 SW5       30.04F HX  95
PORTLAND       MOSUNNY   86  75  70 S9        30.04S HX  95
CLARKSVILLE    MOSUNNY   87  74  64 SW8       30.01F HX  95
SMYRNA         PTSUNNY   87  77  72 SE8       30.05F HX  99
COOKEVILLE     MOSUNNY   84  75  74 VRB3G12   30.07F HX  92
GALLATIN       CLOUDY    84  77  79 CALM      30.06F HX  94
CROSSVILLE     CLOUDY    80  70  71 VRB5      30.13F
$$

TNZ061-075-076-078-094-096-097-161900-
SOUTH MIDDLE TENNESSEE

CITY           SKY/WX    TMP DP  RH WIND       PRES   REMARKS
FAYETTEVILLE   CLOUDY    82  73  74 SW6       30.08F
TULLAHOMA      PTSUNNY   82  72  69 CALM      30.09F
WINCHESTER     SUNNY     84  75  74 VRB6      30.07F HX  92
MCMINNVILLE    MOSUNNY   86  79  79 W8        30.08F HX  99
COLUMBIA       MOSUNNY   84  77  79 S7        30.03F HX  94
SHELBYVILLE    PTSUNNY   84  75  74 SW5       30.06F HX  92
$$

TNZ017-018-042-046-047-161900-
NORTHEAST TENNESSEE

CITY           SKY/WX    TMP DP  RH WIND       PRES   REMARKS
TRI CITIES     MOSUNNY   84  71  65 CALM      30.10F
ELIZABETHTON   MOSUNNY   84  72  65 NW8       30.10F
$$

TNZ012-013-036-069-073-074-161900-
CENTRAL EAST TENNESSEE

CITY           SKY/WX    TMP DP  RH WIND       PRES   REMARKS
KNOXVILLE      PTSUNNY   87  72  60 VRB5      30.07F HX  93
OAK RIDGE      LGT RAIN  83  71  67 VRB5      30.09S
DOWNTOWN KNOXV PTSUNNY   84  73  70 W5        30.06F HX  91
GATLINBURG     MOSUNNY   88  70  55 VRB3      30.07S HX  92
MORRISTOWN     MOSUNNY   84  73  70 NW5       30.09S HX  91
$$

TNZ083-085-099-161900-
SOUTHEAST TENNESSEE

CITY           SKY/WX    TMP DP  RH WIND       PRES   REMARKS
CHATTANOOGA    MOSUNNY   90  71  53 SW6       30.06F HX  96
DAYTON         PTCLDY    75  75 100 CALM      30.08F
$$

SKY/WX REPORTED AS FAIR MEANS FEW OR NO CLOUDS BELOW
12 THOUSAND FEET.





USA.gov is the U.S. government's official web portal to all federal, state and local government web resources and services.